Indianapolis, IN

1:08 AM EDT on July 24, 2019 (GMT -0400)
Indianapolis International

Weather History for KIND - May, 2019

Change the Weather History Date:

Saturday, May 4, 2019

  Actual Average Record
Temperature  
Mean Temperature 54 °F 59 °F  
Max Temperature 58 °F 69 °F 88 °F (1949)
Min Temperature 49 °F 49 °F 30 °F (1976)
Degree Days  
Heating Degree Days 11 7  
Month to date heating degree days 20 29  
Since 1 July heating degree days 5271 5251  
Cooling Degree Days 0 1  
Month to date cooling degree days 1 4  
Year to date cooling degree days 2 19  
Growing Degree Days 4 (Base 50)    
Moisture  
Dew Point 51 °F    
Average Humidity 86    
Maximum Humidity 100    
Minimum Humidity 72    
Precipitation  
Precipitation 0.33 in 0.16 in 2.17 in (2017)
Month to date precipitation 0.77 0.63  
Year to date precipitation 18.25 12.98  
Snow  
Snow 0.00 in 0.00 in T in (1917)
Month to date snowfall 0.0 0.0  
Since 1 July snowfall 19.4 25.9  
Snow Depth 0.00 in    
Sea Level Pressure  
Sea Level Pressure 29.94 in    
Wind  
Wind Speed 9 mph (NE)    
Max Wind Speed 15 mph    
Max Gust Speed 19 mph    
Visibility 6 miles    
Events Rain    
T = Trace of Precipitation, MM = Missing Value Source: NWS Daily Summary

Daily Weather History Graph

Daily Weather History Graph

Search for Another Location

Airport or City:

Astronomy

May. 04, 2019 Rise Set
Actual Time 6:42 AM EDT 8:42 PM EDT
Civil Twilight 6:12 AM EDT 9:11 PM EDT
Nautical Twilight 5:37 AM EDT 9:47 PM EDT
Astronomical Twilight 4:58 AM EDT 10:26 PM EDT
Moon 6:53 AM EDT (5/4) 8:31 PM EDT (5/4)
Length of Visible Light 14h 58m
Length of Day
13h 59m
Waning Crescent, 0% of the Moon is Illuminated
May 4
Waning Crescent
May 4
New
May 11
First Quarter
May 18
Full
May 26
Last Quarter

Hourly Weather History & Observations

Time (EDT) Temp. Dew Point Humidity Pressure Visibility Wind Dir Wind Speed Gust Speed Precip Events Conditions
12:54 AM 55.9 °F 52.0 °F 87% 29.98 in 10.0 mi NNE 8.1 mph - N/A   Overcast
1:23 AM 55.9 °F 52.0 °F 87% 29.96 in 10.0 mi NE 10.4 mph - N/A   Overcast
1:54 AM 55.9 °F 53.1 °F 90% 29.96 in 9.0 mi NNE 6.9 mph - N/A   Overcast
2:54 AM 55.0 °F 52.0 °F 89% 29.94 in 9.0 mi NNE 5.8 mph - N/A   Overcast
3:54 AM 55.0 °F 52.0 °F 89% 29.94 in 8.0 mi ENE 3.5 mph - N/A   Overcast
4:54 AM 55.0 °F 53.1 °F 93% 29.94 in 8.0 mi East 5.8 mph - N/A   Overcast
5:54 AM 55.9 °F 53.1 °F 90% 29.94 in 7.0 mi NE 3.5 mph - N/A   Overcast
6:44 AM 55.0 °F 54.0 °F 96% 29.94 in 2.0 mi NE 8.1 mph - 0.01 in Rain Light Rain
6:54 AM 54.0 °F 54.0 °F 100% 29.93 in 2.0 mi NNE 8.1 mph - 0.02 in Rain Light Rain
7:18 AM 54.0 °F 54.0 °F 100% 29.94 in 2.0 mi NNE 6.9 mph - 0.00 in Rain Light Rain
7:37 AM 54.0 °F 54.0 °F 100% 29.95 in 1.2 mi NNE 9.2 mph - 0.01 in Rain Light Rain
7:54 AM 54.0 °F 54.0 °F 100% 29.95 in 1.2 mi NNE 9.2 mph - 0.02 in Rain Light Rain
8:12 AM 54.0 °F 53.1 °F 97% 29.96 in 1.2 mi North 9.2 mph - 0.01 in Rain Light Rain
8:54 AM 54.0 °F 53.1 °F 97% 29.98 in 1.2 mi NNW 8.1 mph - 0.05 in Rain Light Rain
9:35 AM 53.1 °F 51.1 °F 93% 29.98 in 1.2 mi NE 12.7 mph - 0.08 in Rain Rain
9:51 AM 51.8 °F 51.8 °F 100% 29.97 in 1.2 mi NE 12.7 mph - 0.11 in Rain Light Rain
9:54 AM 52.0 °F 51.1 °F 97% 29.97 in 1.2 mi NE 12.7 mph - 0.11 in Rain Rain
10:54 AM 53.1 °F 51.1 °F 93% 29.96 in 2.5 mi NE 10.4 mph - 0.07 in Rain Light Rain
11:35 AM 53.1 °F 52.0 °F 96% 29.96 in 2.5 mi NE 11.5 mph - 0.01 in Rain Light Rain
11:54 AM 53.1 °F 51.1 °F 93% 29.96 in 2.5 mi NE 11.5 mph - 0.02 in Rain Light Rain
12:03 PM 53.1 °F 51.1 °F 93% 29.96 in 5.0 mi NE 10.4 mph - 0.01 in Rain Light Rain
12:54 PM 54.0 °F 52.0 °F 93% 29.95 in 6.0 mi NE 11.5 mph - 0.04 in Rain Light Rain
1:08 PM 55.0 °F 52.0 °F 89% 29.94 in 8.0 mi NE 11.5 mph - 0.00 in Rain Light Rain
1:54 PM 55.9 °F 53.1 °F 90% 29.94 in 10.0 mi NE 11.5 mph - 0.00 in   Overcast
2:54 PM 55.0 °F 52.0 °F 89% 29.94 in 10.0 mi NNE 9.2 mph - N/A   Overcast
3:13 PM 55.0 °F 51.1 °F 86% 29.93 in 10.0 mi NNE 11.5 mph - N/A   Overcast
3:54 PM 55.0 °F 51.1 °F 86% 29.92 in 10.0 mi NE 11.5 mph - N/A   Overcast
4:54 PM 57.0 °F 50.0 °F 77% 29.91 in 10.0 mi NNE 10.4 mph - N/A   Overcast
5:54 PM 57.0 °F 50.0 °F 77% 29.90 in 10.0 mi NNE 11.5 mph - N/A   Overcast
6:54 PM 57.0 °F 48.9 °F 74% 29.89 in 10.0 mi North 10.4 mph - N/A   Overcast
7:54 PM 55.9 °F 48.0 °F 75% 29.88 in 10.0 mi NE 9.2 mph - N/A   Overcast
8:54 PM 54.0 °F 48.0 °F 80% 29.87 in 10.0 mi NNE 6.9 mph - N/A   Overcast
9:54 PM 53.1 °F 48.0 °F 83% 29.89 in 10.0 mi NNE 6.9 mph - N/A   Overcast
10:54 PM 52.0 °F 46.9 °F 83% 29.89 in 10.0 mi NE 8.1 mph - N/A   Overcast
11:54 PM 51.1 °F 46.9 °F 86% 29.89 in 10.0 mi NNE 6.9 mph - N/A   Overcast